RADCAL 1 22698U 93041A 10076.14368524 .00000161 00000-0 62900-4 0 5637 2 22698 89.5462 12.8125 0090524 144.8698 215.8528 14.22833841868089 STRV 1A 1 23125U 94034B 10074.60252442 .00006857 00000-0 86874-3 0 5763 2 23125 7.3362 299.5986 6844742 222.7684 56.3063 2.86560509147208 STRV 1B 1 23126U 94034C 10074.99449345 .00000937 00000-0 26446-3 0 5937 2 23126 7.3456 243.4086 6784394 335.4674 3.3765 2.92928212149613 REX 2 1 23814U 96014A 10076.81526279 .00000079 00000-0 29727-4 0 9270 2 23814 90.1525 277.2459 0023634 132.7614 227.5578 14.23887054728487 COSMOS 2346 1 24953U 97052A 10076.19821056 .00000043 00000-0 26008-4 0 7403 2 24953 82.9214 111.3922 0041538 83.7211 276.8675 13.79439514628264 ARGOS 1 25634U 99008A 10076.63916711 -.00000123 00000-0 -36950-4 0 9607 2 25634 98.9733 122.7193 0009454 247.3238 112.6932 14.18922260572820 HELIOS 1B 1 25977U 99064A 10076.10791833 .00000233 00000-0 40127-4 0 9440 2 25977 98.3446 91.5184 0001859 133.4194 226.7176 14.77784665552235 MTI 1 26102U 00014A 10076.83874256 .00001549 00000-0 93405-4 0 5285 2 26102 97.2477 231.5913 0018497 242.4301 252.8970 15.12023356550740 STRV 1C 1 26610U 00072C 10075.33072261 -.00000193 00000-0 10000-3 0 428 2 26610 5.9331 192.3854 7345782 246.3128 24.8357 2.03462304 69369 OFEQ 5 1 27434U 02025A 10076.80726301 .00002155 00000-0 11216-3 0 1270 2 27434 143.4640 130.3987 0024070 143.1720 355.4339 15.06094700434551 SAR-LUPE 1 1 29658U 06060A 10076.70327532 .00002687 00000-0 10461-3 0 6181 2 29658 98.1472 205.7414 0019617 35.7038 75.0237 15.26866273180656 MIDSTAR-1 1 30773U 07006B 10075.89241540 -.00000305 00000-0 00000+0 0 8570 2 30773 46.0371 344.4210 0009720 225.1766 134.8549 15.24032125168338 CFESAT 1 30777U 07006F 10075.88452199 .00000961 00000-0 73066-4 0 7918 2 30777 35.4320 249.7376 0003110 58.6744 301.4276 15.03011322166105 NFIRE 1 31140U 07014A 10076.73084087 .00017214 00000-0 18515-3 0 834 2 31140 48.2278 170.0720 0047842 293.7958 65.7975 15.62305848164942 OFEQ 7 1 31601U 07025A 10076.57450486 .00004302 00000-0 16035-3 0 1234 2 31601 141.7489 301.6311 0069322 183.6895 230.6466 15.20546082154048 SAR-LUPE 2 1 31797U 07030A 10076.68815255 .00001678 00000-0 66868-4 0 240 2 31797 98.1426 276.1899 0012914 349.0472 73.8918 15.26810738150875 SAR-LUPE 3 1 32283U 07053A 10076.69860086 .00002393 00000-0 93774-4 0 6572 2 32283 98.0920 335.9183 0011199 91.5100 352.7249 15.26867285132386 SAR-LUPE 4 1 32750U 08014A 10076.69160971 .00002899 00000-0 11247-3 0 2037 2 32750 98.1440 206.6637 0020351 199.5240 273.5840 15.26888741109836 SAR-LUPE 5 1 33244U 08036A 10076.74289722 .00002414 00000-0 94333-4 0 8400 2 33244 98.1164 334.5047 0019332 247.3456 145.8313 15.26868742 92085 SPIRALE A 1 33751U 09008C 10074.59716475 .00000014 00000-0 10000-3 0 2185 2 33751 1.4655 123.8777 7151068 142.7892 299.5269 2.25842483 8949 SPIRALE B 1 33752U 09008D 10074.61988870 .00000116 00000-0 17223-2 0 2208 2 33752 1.4710 124.5275 7149532 141.7641 301.3689 2.25834501 8958 TACSAT 3 1 35001U 09028A 10076.23743410 .00008669 00000-0 21067-3 0 2391 2 35001 40.4553 46.0675 0022417 32.3859 327.8325 15.40737046 46441